OBJECT F, 56748

Orbit data source: Space-Track

You're viewing an Uncataloged Satellite

Recently launched and/or uncataloged satellites may have evolving metadata. Metadata may include but not limited to: Owner, Maufacturer, Bus, Motor, and Mission.

OBJECT F, 56748 is a South Korean satellite in SSO that was launched on Thu, 25 May 2023 UTC via an NURI launch vehicle from the Naro Space Center, South Korea (NSC). Unknown objects in Earth's orbit typically refer to objects detected orbiting the Earth but have not yet been identified or cataloged. These objects could be anything from previously untracked satellites, spent rocket stages, debris from satellite collisions, or even natural meteoroids temporarily captured by Earth's gravity.

Loading next visibility...
Identifier
56748, 2023-072F
Orbit
SSO
Country
Flag of KRKR / SKOR
Related business
None
Manufacturer
Unknown
Mission
Operational Commercial Imaging
Bus & Motor
Unknown
Mass
Unknown
Launch date (UTC)
2023-05-25 (3 years ago)
Launch vehicle
NURI
Launch site
Naro Space Center, South Korea (NSC)
Object type
Unknown
Shape & HBR
Box, 0.1 m
Radar Cross Section
0.035 m², Medium (>0.1 m² and < 1m²)

Expand to show TLE details & history
Last TLE update: 9 hours ago

TLE from 9 hours ago
0 OBJECT F
1 56748U 23072F   26126.26927449  .00008768  00000-0  29866-3 0  9997
2 56748  97.5136 323.7472 0006634 152.0229 208.1369 15.30615580163363
Epoch: 2026-05-06T06:27Z
TLE epoch observation values (Epoch: 2026-05-06T06:27:45.315Z)
Latitude
-0.00009°
Longitude
2.67621°
Altitude
481.086 km
Speed
7.623 km/s
True Right ascension
21h 34m 59s
True Declination
0° 00' 00"
Sunlit
Object was in daylight at epoch
Visualization orbit readout
Latitude
Unknown
Longitude
Unknown
Altitude
Unknown
Speed
Unknown
Apparent Right ascension
Unknown
Apparent Declination
Unknown
Sunlit
N/A
Visualization observer readout
Local Sidereal Time
23:35:51
Azimuth
Unknown
Elevation
Unknown
Doppler factor
Unknown
Orbital elements
Apogee altitude
475.475 km
Perigee altitude
466.387 km
Semi-major axis
6,849.068 km
Eccentricity
0.00066
Inclination
97.5136°
RAAN
323.7472°
Arg. of periapsis
152.0229°
True anomaly
208.10108°
Mean anomaly
208.1369°
Eccentric anomaly
208.11899°
Mean motion
3.82909 °/min
Orbital period
94.02 mins
BSTAR
0.00029866
Loading maneuver chart data...
Computing Atmospheric mass density...
Loading historical data...
Loading historical data...
Loading historical data...
Loading historical data...
Loading historical data...
Loading historical data...
Loading historical data...

Documentation

Showing up to 5 results
|